Content
SEND FEEDBACK

Daily
Averages
Monthly
Summary
United States of America

BIG COPPITT KEY, FLORIDA


Home > North America > United States > Florida
Elevation: 23 feet     Latitude: 24 34N     Longitude: 081 40W

WEATHER
 
SELECT A DAY
Number of Records: 190,944;   Date Range: 1/1/95 - 7/29/14
 
SHARE

PRINT THIS DATA

[ ← Previous Day ]
WEATHER ALMANAC - JANUARY 31, 2013
[ Next Day → ]
[ °C ]   °F
Weather ElementAverageHighLow
Temperature70 °F75 °F (1:53 am)64.9 °F (7:53 pm)
Dewpoint63.6 °F72 °F (6:53 am)55 °F (7:53 pm)
Humidity80.2 %90 % (6:53 am)66 % (11:53 pm)
Barometer30.10 in30.18 in (9:53 pm)29.98 in (3:53 am)
Wind Speed14.3 mph23 mph (8:46 am)
Wind Gust34.5 mph (8:46 am)
Weather ElementAverage
Visibility9.9 mi
Wind DirectionWSW (253.7 °)

Weather ElementTotal
Precipitation---
Cooling Degree Days5 (Base 65)
Growing Degree Days20 (Base 50)
Averaged from 35 records on January 31, 2013
WEATHER CONDITIONS BREAKOUT
WIND DIRECTION BREAKOUT
WEATHER BY HOUR - JANUARY 31, 2013
[ °C ]   °F
Local TimeTemperatureDewpointHumidityBarometerVisibilityWind DirectionWind SpeedGust SpeedPrecipitationEventsConditions
1:53 AM75.0 °F71.1 °F87 %30.00 in10.0 miSouth (180°)6.9 mphClear
2:53 AM75.0 °F71.1 °F87 %29.99 in10.0 miSouth (190°)5.8 mphPartly Cloudy
3:53 AM75.0 °F70.0 °F84 %29.98 in10.0 miSouth (190°)6.9 mphClear
4:53 AM75.0 °F71.1 °F87 %29.99 in10.0 miSSW (200°)8.1 mphClear
5:53 AM75.0 °F71.1 °F87 %30.00 in10.0 miSSW (210°)10.4 mphClear
6:53 AM75.0 °F72.0 °F90 %30.01 in10.0 miSSW (210°)8.1 mphClear
7:53 AM75.0 °F72.0 °F90 %30.04 in10.0 miSW (230°)9.2 mphClear
8:46 AM69.8 °F66.2 °F88 %30.09 in10.0 miNorth (350°)23.0 mph34.5 mphMostly Cloudy
8:53 AM70.0 °F66.0 °F87 %30.09 in8.0 miNNW (340°)21.9 mph28.8 mph0.00 inRainRain
9:14 AM69.8 °F66.2 °F88 %30.10 in10.0 miNorth (350°)19.6 mph26.5 mph0.00 inOvercast
9:31 AM69.8 °F64.4 °F83 %30.11 in10.0 miNorth (350°)18.4 mph26.5 mph0.00 inOvercast
9:38 AM69.8 °F64.4 °F83 %30.11 in10.0 miNorth (360°)17.3 mph26.5 mph0.00 inOvercast
9:53 AM69.1 °F64.9 °F87 %30.12 in10.0 miNorth (350°)19.6 mph26.5 mph0.00 inOvercast
10:53 AM70.0 °F64.0 °F81 %30.13 in10.0 miNorth (10°)15.0 mph23.0 mphMostly Cloudy
11:14 AM69.8 °F62.6 °F78 %30.12 in10.0 miNorth (10°)15.0 mph21.9 mphMostly Cloudy
11:37 AM69.8 °F64.4 °F83 %30.12 in10.0 miNorth (360°)16.1 mph23.0 mphMostly Cloudy
11:53 AM71.1 °F64.0 °F78 %30.12 in10.0 miNorth (360°)15.0 mph20.7 mphMostly Cloudy
12:01 PM69.8 °F62.6 °F78 %30.12 in10.0 miNorth (360°)15.0 mph23.0 mphMostly Cloudy
12:29 PM71.6 °F64.4 °F78 %30.11 in10.0 miNorth (360°)12.7 mph21.9 mphMostly Cloudy
12:53 PM70.0 °F63.0 °F78 %30.11 in10.0 miNorth (10°)15.0 mph23.0 mphMostly Cloudy
1:51 PM69.8 °F62.6 °F78 %30.08 in10.0 miNorth (10°)12.7 mph20.7 mphOvercast
1:53 PM70.0 °F63.0 °F78 %30.08 in10.0 miNorth (10°)17.3 mph20.7 mphOvercast
2:53 PM69.1 °F62.1 °F78 %30.09 in10.0 miNorth (350°)15.0 mphOvercast
3:41 PM68.0 °F62.6 °F83 %30.10 in10.0 miNorth (350°)16.1 mph23.0 mphOvercast
3:53 PM69.1 °F62.1 °F78 %30.10 in10.0 miNorth (350°)16.1 mph24.2 mphOvercast
4:14 PM69.8 °F62.6 °F78 %30.09 in10.0 miNorth (350°)15.0 mph24.2 mphOvercast
4:53 PM68.0 °F62.1 °F81 %30.11 in10.0 miNorth (350°)15.0 mph23.0 mphOvercast
5:45 PM66.2 °F59.0 °F78 %30.12 in10.0 miNorth (350°)13.8 mph25.3 mphOvercast
5:53 PM66.9 °F59.0 °F76 %30.12 in10.0 miNorth (350°)17.3 mph24.2 mphOvercast
6:53 PM66.0 °F55.9 °F70 %30.14 in10.0 miNorth (350°)16.1 mph24.2 mphOvercast
7:53 PM64.9 °F55.0 °F70 %30.16 in10.0 miNorth (350°)16.1 mph23.0 mphOvercast
8:53 PM66.0 °F55.9 °F70 %30.17 in10.0 miNorth (350°)13.8 mph21.9 mphOvercast
9:53 PM66.0 °F55.9 °F70 %30.18 in10.0 miNorth (10°)12.7 mph20.7 mphOvercast
10:53 PM66.9 °F57.0 °F70 %30.18 in10.0 miNorth (360°)11.5 mph19.6 mphClear
11:53 PM66.9 °F55.0 °F66 %30.17 in10.0 miNorth (10°)11.5 mph18.4 mphClear
Hourly data recorded from KEYW, located miles away from Big Coppitt Key, Florida







STORIES FROM OUR PARTNERS